Regional Weather Roundup
Issued by NWS

Home | Current Version | Previous Version | Graphics & Text | Print | Product List | Glossary On
Versions: 1 2 3 4 5 6 7 8 9 10 11 12 13 14 15 16 17 18 19 20 21 22 23 24 25 26 27 28 29 30 31 32 33 34 35 36 37 38 39 40 41 42 43 44 45 46 47 48 49
000
ASUS45 KBOI 070910
RWRID

IDAHO REGIONAL WEATHER ROUNDUP
NATIONAL WEATHER SERVICE BOISE ID
200 AM MST SUN FEB 07 2016

NOTE: "FAIR" INDICATES FEW OR NO CLOUDS BELOW 12000 FEET
WITH NO SIGNIFICANT WEATHER AND/OR OBSTRUCTIONS TO VISIBILITY

IDZ012-014-071000-
SOUTHWEST IDAHO


CITY           SKY/WX    TMP DP  RH WIND       PRES   REMARKS
BOISE          CLEAR     30  27  88 CALM      30.50R FOG
CALDWELL       PTCLDY    27  26  96 CALM      30.52R FOG
MOUNTAIN HOME  DRIZZLE   28  28 100 W2        30.49R FOG
$$

IDZ016-017-071000-
SOUTHCENTRAL IDAHO


CITY           SKY/WX    TMP DP  RH WIND       PRES   REMARKS
BURLEY         MOCLDY    33  26  75 SW10      30.42F WCI  25
JEROME         PTCLDY    31  25  78 SW3       30.45R
TWIN FALLS     PTCLDY    36  25  64 S13       30.44R WCI  27
$$

IDZ019>023-071000-
SOUTHEAST IDAHO


CITY           SKY/WX    TMP DP  RH WIND       PRES   REMARKS
IDAHO FALLS    CLOUDY    13  12  96 CALM      30.43S
POCATELLO      CLOUDY    35  26  69 SW14      30.43S WCI  26
REXBURG        CLOUDY    17  15  92 W5        30.41F FOG     WCI  10
$$

IDZ006-010-011-018-031-032-071000-
CENTRAL IDAHO MOUNTAINS


CITY           SKY/WX    TMP DP  RH WIND       PRES   REMARKS
MCCALL         CLOUDY    26  24  92 CALM      30.43R
HAILEY         PTCLDY    19  16  86 NW9       30.42S WCI   9
STANLEY          N/A     21  15  78 SE5       30.41R WCI  15
SALMON         CLOUDY    18  12  79 CALM      30.40R
CHALLIS        CLEAR     17  11  77 CALM      30.38R
$$

IDZ002-004-006-007-026-071000-
NORTHERN IDAHO


CITY           SKY/WX    TMP DP  RH WIND       PRES   REMARKS
LEWISTON       CLEAR     32  26  78 SE3       30.51R
LOWELL           N/A     35  32  88 CALM      30.57R
COEUR D`ALENE  CLEAR     28  28 100 SE3       30.45S
MULLAN PASS    CLEAR     20  17  88 SW6       30.35R WCI  12
$$



USA.gov is the U.S. government's official web portal to all federal, state and local government web resources and services.